Time,TemperatureF,DewpointF,PressureIn,WindDirection,WindDirectionDegrees,WindSpeedMPH,WindSpeedGustMPH,Humidity,HourlyPrecipIn,Conditions,Clouds,dailyrainin,SolarRadiationWatts/m^2,SoftwareType,DateUTC
2013-02-07 00:01:00,24.0,23.0,-100.00,West,270,2.0,4.0,94,0.00,,,0.02,0.000000,,2013-02-07 07:01:00,
2013-02-07 00:11:00,24.0,23.0,-100.00,West,270,2.0,4.0,94,0.00,,,0.02,0.000000,,2013-02-07 07:11:00,
2013-02-07 00:32:00,24.0,23.0,-100.00,SSE,155,0.0,3.0,95,0.00,,,0.02,0.000000,,2013-02-07 07:32:00,
2013-02-07 00:42:00,24.0,23.0,-100.00,SSE,155,0.0,3.0,95,0.00,,,0.02,0.000000,,2013-02-07 07:42:00,
2013-02-07 00:52:00,24.0,23.0,-100.00,SSE,155,0.0,3.0,95,0.00,,,0.02,0.000000,,2013-02-07 07:52:00,
2013-02-07 01:01:00,24.0,23.0,-100.00,SSE,155,0.0,3.0,95,0.00,,,0.02,0.000000,,2013-02-07 08:01:00,
2013-02-07 01:11:00,24.0,23.0,-100.00,SSE,155,0.0,3.0,95,0.00,,,0.02,0.000000,,2013-02-07 08:11:00,
2013-02-07 01:32:00,24.0,23.0,-100.00,SE,137,0.0,4.0,97,0.00,,,-99.99,0.000000,,2013-02-07 08:32:00,
2013-02-07 01:42:00,24.0,23.0,-100.00,SE,137,0.0,4.0,97,0.00,,,-99.99,0.000000,,2013-02-07 08:42:00,
2013-02-07 01:52:00,24.0,23.0,-100.00,SE,137,0.0,4.0,97,0.00,,,-99.99,0.000000,,2013-02-07 08:52:00,
2013-02-07 02:01:00,24.0,23.0,-100.00,SE,137,0.0,4.0,97,0.00,,,-99.99,0.000000,,2013-02-07 09:01:00,
2013-02-07 02:11:00,24.0,23.0,-100.00,SE,137,0.0,4.0,97,0.00,,,-99.99,0.000000,,2013-02-07 09:11:00,
2013-02-07 02:32:00,25.0,24.0,-100.00,SE,128,1.0,3.0,96,0.00,,,0.02,0.000000,,2013-02-07 09:32:00,
2013-02-07 02:42:00,25.0,24.0,-100.00,SE,128,1.0,3.0,96,0.00,,,0.02,0.000000,,2013-02-07 09:42:00,
2013-02-07 02:52:00,25.0,24.0,-100.00,SE,128,1.0,3.0,96,0.00,,,0.02,0.000000,,2013-02-07 09:52:00,
2013-02-07 03:01:00,25.0,24.0,-100.00,SE,128,1.0,3.0,96,0.00,,,0.02,0.000000,,2013-02-07 10:01:00,
2013-02-07 03:11:00,25.0,24.0,-100.00,SE,128,1.0,3.0,96,0.00,,,0.02,0.000000,,2013-02-07 10:11:00,
2013-02-07 03:32:00,25.0,24.0,-100.00,SSE,157,1.0,4.0,96,0.00,,,0.02,0.000000,,2013-02-07 10:32:00,
2013-02-07 03:42:00,25.0,24.0,-100.00,SSE,157,1.0,4.0,96,0.00,,,0.02,0.000000,,2013-02-07 10:42:00,
2013-02-07 03:52:00,25.0,24.0,-100.00,SSE,157,1.0,4.0,96,0.00,,,0.02,0.000000,,2013-02-07 10:52:00,
2013-02-07 04:01:00,25.0,24.0,-100.00,SSE,157,1.0,4.0,96,0.00,,,0.02,0.000000,,2013-02-07 11:01:00,
2013-02-07 04:11:00,25.0,24.0,-100.00,SSE,157,1.0,4.0,96,0.00,,,0.02,0.000000,,2013-02-07 11:11:00,
2013-02-07 04:32:00,25.0,24.0,-100.00,ENE,61,2.0,3.0,96,0.00,,,-99.99,0.000000,,2013-02-07 11:32:00,
2013-02-07 04:44:00,25.0,24.0,-100.00,ENE,61,2.0,3.0,96,0.00,,,-99.99,0.000000,,2013-02-07 11:44:00,
2013-02-07 04:52:00,25.0,24.0,-100.00,ENE,61,2.0,3.0,96,0.00,,,-99.99,0.000000,,2013-02-07 11:52:00,
2013-02-07 05:01:00,25.0,24.0,-100.00,ENE,61,2.0,3.0,96,0.00,,,-99.99,0.000000,,2013-02-07 12:01:00,
2013-02-07 05:11:00,25.0,24.0,-100.00,ENE,61,2.0,3.0,96,0.00,,,-99.99,0.000000,,2013-02-07 12:11:00,
2013-02-07 05:33:00,25.0,24.0,-100.00,NW,304,0.0,4.0,95,0.00,,,0.01,0.000000,,2013-02-07 12:33:00,
2013-02-07 05:42:00,25.0,24.0,-100.00,NW,304,0.0,4.0,95,0.00,,,0.01,0.000000,,2013-02-07 12:42:00,
2013-02-07 05:53:00,25.0,24.0,-100.00,NW,304,0.0,4.0,95,0.00,,,0.01,0.000000,,2013-02-07 12:53:00,
2013-02-07 06:02:00,25.0,24.0,-100.00,NW,304,0.0,4.0,95,0.00,,,0.01,0.000000,,2013-02-07 13:02:00,
2013-02-07 06:11:00,25.0,24.0,-100.00,NW,304,0.0,4.0,95,0.00,,,0.01,0.000000,,2013-02-07 13:11:00,
2013-02-07 06:32:00,25.0,24.0,-100.00,WSW,246,2.0,4.0,95,0.00,,,-99.99,0.000000,,2013-02-07 13:32:00,
2013-02-07 06:42:00,25.0,24.0,-100.00,WSW,246,2.0,4.0,95,0.00,,,-99.99,0.000000,,2013-02-07 13:42:00,
2013-02-07 06:52:00,25.0,24.0,-100.00,WSW,246,2.0,4.0,95,0.00,,,-99.99,0.000000,,2013-02-07 13:52:00,
2013-02-07 07:01:00,25.0,24.0,-100.00,WSW,246,2.0,4.0,95,0.00,,,-99.99,0.000000,,2013-02-07 14:01:00,
2013-02-07 07:11:00,25.0,24.0,-100.00,WSW,246,2.0,4.0,95,0.00,,,-99.99,0.000000,,2013-02-07 14:11:00,
2013-02-07 07:32:00,23.0,22.0,-100.00,ESE,114,3.0,5.0,97,0.00,,,-99.99,0.000000,,2013-02-07 14:32:00,
2013-02-07 07:42:00,23.0,22.0,-100.00,ESE,114,3.0,5.0,97,0.00,,,-99.99,0.000000,,2013-02-07 14:42:00,
2013-02-07 07:52:00,23.0,22.0,-100.00,ESE,114,3.0,5.0,97,0.00,,,-99.99,0.000000,,2013-02-07 14:52:00,
2013-02-07 08:01:00,23.0,22.0,-100.00,ESE,114,3.0,5.0,97,0.00,,,-99.99,0.000000,,2013-02-07 15:01:00,
2013-02-07 08:11:00,23.0,22.0,-100.00,ESE,114,3.0,5.0,97,0.00,,,-99.99,0.000000,,2013-02-07 15:11:00,
2013-02-07 08:32:00,21.0,20.0,-100.00,NNE,26,2.0,5.0,96,0.00,,,0.01,6.000000,,2013-02-07 15:32:00,
2013-02-07 08:42:00,21.0,20.0,-100.00,NNE,26,2.0,5.0,96,0.00,,,0.01,6.000000,,2013-02-07 15:42:00,
2013-02-07 08:52:00,21.0,20.0,-100.00,NNE,26,2.0,5.0,96,0.00,,,0.01,6.000000,,2013-02-07 15:52:00,
2013-02-07 09:01:00,21.0,20.0,-100.00,NNE,26,2.0,5.0,96,0.00,,,0.01,6.000000,,2013-02-07 16:01:00,
2013-02-07 09:11:00,21.0,20.0,-100.00,NNE,26,2.0,5.0,96,0.00,,,0.01,6.000000,,2013-02-07 16:11:00,
2013-02-07 09:32:00,27.0,26.0,-100.00,NNE,29,2.0,4.0,97,0.00,,,0.01,78.000000,,2013-02-07 16:32:00,
2013-02-07 09:42:00,27.0,26.0,-100.00,NNE,29,2.0,4.0,97,0.00,,,0.01,78.000000,,2013-02-07 16:42:00,
2013-02-07 09:52:00,27.0,26.0,-100.00,NNE,29,2.0,4.0,97,0.00,,,0.01,78.000000,,2013-02-07 16:52:00,
2013-02-07 10:01:00,27.0,26.0,-100.00,NNE,29,2.0,4.0,97,0.00,,,0.01,78.000000,,2013-02-07 17:01:00,
2013-02-07 10:11:00,27.0,26.0,-100.00,NNE,29,2.0,4.0,97,0.00,,,0.01,78.000000,,2013-02-07 17:11:00,
2013-02-07 10:43:00,30.0,27.0,-100.00,North,359,2.0,5.0,88,0.00,,,-99.99,154.000000,,2013-02-07 17:43:00,
2013-02-07 10:52:00,30.0,27.0,-100.00,North,359,2.0,5.0,88,0.00,,,-99.99,154.000000,,2013-02-07 17:52:00,
2013-02-07 11:01:00,30.0,27.0,-100.00,North,359,2.0,5.0,88,0.00,,,-99.99,154.000000,,2013-02-07 18:01:00,
2013-02-07 11:11:00,30.0,27.0,-100.00,North,359,2.0,5.0,88,0.00,,,-99.99,154.000000,,2013-02-07 18:11:00,
2013-02-07 11:32:00,32.0,27.0,-100.00,North,2,3.0,6.0,81,0.00,,,0.00,225.000000,,2013-02-07 18:32:00,
2013-02-07 11:42:00,32.0,27.0,-100.00,North,2,3.0,6.0,81,0.00,,,0.00,225.000000,,2013-02-07 18:42:00,
2013-02-07 11:52:00,32.0,27.0,-100.00,North,2,3.0,6.0,81,0.00,,,0.00,225.000000,,2013-02-07 18:52:00,
2013-02-07 12:01:00,32.0,27.0,-100.00,North,2,3.0,6.0,81,0.00,,,0.00,225.000000,,2013-02-07 19:01:00,
2013-02-07 12:11:00,32.0,27.0,-100.00,North,2,3.0,6.0,81,0.00,,,0.00,225.000000,,2013-02-07 19:11:00,
2013-02-07 12:42:00,34.0,27.0,-100.00,NNE,16,3.0,5.0,76,0.00,,,0.00,251.000000,,2013-02-07 19:42:00,
2013-02-07 12:52:00,34.0,27.0,-100.00,NNE,16,3.0,5.0,76,0.00,,,0.00,251.000000,,2013-02-07 19:52:00,
2013-02-07 13:01:00,34.0,27.0,-100.00,NNE,16,3.0,5.0,76,0.00,,,0.00,251.000000,,2013-02-07 20:01:00,
2013-02-07 13:11:00,34.0,27.0,-100.00,NNE,16,3.0,5.0,76,0.00,,,0.00,251.000000,,2013-02-07 20:11:00,
2013-02-07 13:32:00,36.0,26.0,-100.00,NNE,15,3.0,6.0,67,0.00,,,-99.99,243.000000,,2013-02-07 20:32:00,
2013-02-07 13:42:00,36.0,26.0,-100.00,NNE,15,3.0,6.0,67,0.00,,,-99.99,243.000000,,2013-02-07 20:42:00,
2013-02-07 13:52:00,36.0,26.0,-100.00,NNE,15,3.0,6.0,67,0.00,,,-99.99,243.000000,,2013-02-07 20:52:00,
2013-02-07 14:01:00,36.0,26.0,-100.00,NNE,15,3.0,6.0,67,0.00,,,-99.99,243.000000,,2013-02-07 21:01:00,
2013-02-07 14:11:00,36.0,26.0,-100.00,NNE,15,3.0,6.0,67,0.00,,,-99.99,243.000000,,2013-02-07 21:11:00,
2013-02-07 14:42:00,37.0,25.0,-100.00,NNW,347,2.0,5.0,61,0.00,,,0.00,174.000000,,2013-02-07 21:42:00,
2013-02-07 14:52:00,37.0,25.0,-100.00,NNW,347,2.0,5.0,61,0.00,,,0.00,174.000000,,2013-02-07 21:52:00,
2013-02-07 15:01:00,37.0,25.0,-100.00,NNW,347,2.0,5.0,61,0.00,,,0.00,174.000000,,2013-02-07 22:01:00,
2013-02-07 15:11:00,37.0,25.0,-100.00,NNW,347,2.0,5.0,61,0.00,,,0.00,174.000000,,2013-02-07 22:11:00,
2013-02-07 15:32:00,39.0,27.0,-100.00,NNW,343,3.0,5.0,63,0.00,,,0.00,174.000000,,2013-02-07 22:32:00,
2013-02-07 15:42:00,39.0,27.0,-100.00,NNW,343,3.0,5.0,63,0.00,,,0.00,174.000000,,2013-02-07 22:42:00,
2013-02-07 15:52:00,39.0,27.0,-100.00,NNW,343,3.0,5.0,63,0.00,,,0.00,174.000000,,2013-02-07 22:52:00,
2013-02-07 16:01:00,39.0,27.0,-100.00,NNW,343,3.0,5.0,63,0.00,,,0.00,174.000000,,2013-02-07 23:01:00,
2013-02-07 16:11:00,39.0,27.0,-100.00,NNW,343,3.0,5.0,63,0.00,,,0.00,174.000000,,2013-02-07 23:11:00,
2013-02-07 16:42:00,39.0,25.0,-100.00,NNE,32,6.0,9.0,58,0.00,,,0.00,212.000000,,2013-02-07 23:42:00,
2013-02-07 16:52:00,39.0,25.0,-100.00,NNE,32,6.0,9.0,58,0.00,,,0.00,212.000000,,2013-02-07 23:52:00,
2013-02-07 17:01:00,39.0,25.0,-100.00,NNE,32,6.0,9.0,58,0.00,,,0.00,212.000000,,2013-02-08 00:01:00,
2013-02-07 17:11:00,39.0,25.0,-100.00,NNE,32,6.0,9.0,58,0.00,,,0.00,212.000000,,2013-02-08 00:11:00,
2013-02-07 18:52:00,32.0,24.0,-100.00,NNE,27,6.0,10.0,73,0.00,,,0.00,21.000000,,2013-02-08 01:52:00,
2013-02-07 19:01:00,32.0,24.0,-100.00,NNE,27,6.0,10.0,73,0.00,,,0.00,21.000000,,2013-02-08 02:01:00,
2013-02-07 19:11:00,32.0,24.0,-100.00,NNE,27,6.0,10.0,73,0.00,,,0.00,21.000000,,2013-02-08 02:11:00,
2013-02-07 19:42:00,32.0,25.0,-100.00,NE,56,5.0,8.0,76,0.00,,,0.00,0.000000,,2013-02-08 02:42:00,
2013-02-07 19:52:00,32.0,25.0,-100.00,NE,56,5.0,8.0,76,0.00,,,0.00,0.000000,,2013-02-08 02:52:00,
2013-02-07 20:01:00,32.0,25.0,-100.00,NE,56,5.0,8.0,76,0.00,,,0.00,0.000000,,2013-02-08 03:01:00,
2013-02-07 20:12:00,32.0,25.0,-100.00,NE,56,5.0,8.0,76,0.00,,,0.00,0.000000,,2013-02-08 03:12:00,
2013-02-07 20:32:00,31.0,24.0,-100.00,WSW,237,2.0,6.0,76,0.00,,,0.00,0.000000,,2013-02-08 03:32:00,
2013-02-07 20:42:00,31.0,24.0,-100.00,WSW,237,2.0,6.0,76,0.00,,,0.00,0.000000,,2013-02-08 03:42:00,
2013-02-07 20:52:00,31.0,24.0,-100.00,WSW,237,2.0,6.0,76,0.00,,,0.00,0.000000,,2013-02-08 03:52:00,
2013-02-07 21:01:00,31.0,24.0,-100.00,WSW,237,2.0,6.0,76,0.00,,,0.00,0.000000,,2013-02-08 04:01:00,
2013-02-07 21:11:00,31.0,24.0,-100.00,WSW,237,2.0,6.0,76,0.00,,,0.00,0.000000,,2013-02-08 04:11:00,
2013-02-07 21:32:00,31.0,26.0,-100.00,South,191,2.0,4.0,81,0.00,,,0.00,0.000000,,2013-02-08 04:32:00,
2013-02-07 21:42:00,31.0,26.0,-100.00,South,191,2.0,4.0,81,0.00,,,0.00,0.000000,,2013-02-08 04:42:00,
2013-02-07 21:52:00,31.0,26.0,-100.00,South,191,2.0,4.0,81,0.00,,,0.00,0.000000,,2013-02-08 04:52:00,
2013-02-07 22:01:00,31.0,26.0,-100.00,South,191,2.0,4.0,81,0.00,,,0.00,0.000000,,2013-02-08 05:01:00,
2013-02-07 22:11:00,31.0,26.0,-100.00,South,191,2.0,4.0,81,0.00,,,0.00,0.000000,,2013-02-08 05:11:00,
2013-02-07 22:32:00,30.0,25.0,-100.00,South,172,3.0,5.0,83,0.00,,,0.00,0.000000,,2013-02-08 05:32:00,
2013-02-07 22:42:00,30.0,25.0,-100.00,South,172,3.0,5.0,83,0.00,,,0.00,0.000000,,2013-02-08 05:42:00,
2013-02-07 22:52:00,30.0,25.0,-100.00,South,172,3.0,5.0,83,0.00,,,0.00,0.000000,,2013-02-08 05:52:00,
2013-02-07 23:01:00,30.0,25.0,-100.00,South,172,3.0,5.0,83,0.00,,,0.00,0.000000,,2013-02-08 06:01:00,
2013-02-07 23:11:00,30.0,25.0,-100.00,South,172,3.0,5.0,83,0.00,,,0.00,0.000000,,2013-02-08 06:11:00,
2013-02-07 23:32:00,30.0,27.0,-100.00,SSW,200,2.0,4.0,90,0.00,,,0.00,0.000000,,2013-02-08 06:32:00,
2013-02-07 23:42:00,30.0,27.0,-100.00,SSW,200,2.0,4.0,90,0.00,,,0.00,0.000000,,2013-02-08 06:42:00,
2013-02-07 23:52:00,30.0,27.0,-100.00,SSW,200,2.0,4.0,90,0.00,,,0.00,0.000000,,2013-02-08 06:52:00,